sat.trackr.live / text

‹ back to catalog

STARLINK-36568

NORAD 68017 · 2026-040C

PAYLOAD ACTIVE UNKNOWN

§ Identity

Operator
Country
US
Launch date
2026-03-01
Launch site
AFWTR
Launch vehicle
Mass (kg)
RCS (m²)

Purposes: comms

External: N2YO · Heavens-Above · Gunter

§ Orbital elements

Epoch: 2026-05-25T03:00:36.122976Z

Period
93.91 min
Inclination
97.2851°
Eccentricity
0.0001836
Mean motion
15.33457625 rev/d
Perigee alt
464.2 km
Apogee alt
466.8 km
Semi-major
6,843.6 km
B*
8.3090e-4
RAAN
94.0917°
Arg perigee
97.6771°
Mean anomaly
262.4680°
Rev number
1,317

§ Raw data

STARLINK-365681 68017U 26040C   26145.12541809  .00026856  00000+0  83090-3 0  99912 68017  97.2851  94.0917 0001836  97.6771 262.4680 15.33457625 13172

JSON: /api/v1/satellites/68017 · /tle

For live sub-satellite position, see the globe view (requires WebGL).

§ Visibility from observer

Set your observer location to see the next 7 days of passes ≥ 10°. The values pass through the URL so the page stays shareable.

No JS? Fill the form by hand. The geolocation button needs JavaScript.